sat.trackr.live / text

‹ back to catalog

STARLINK-35637

NORAD 66130 · 2025-237S

PAYLOAD ACTIVE UNKNOWN

§ Identity

Operator
Country
US
Launch date
2025-10-22
Launch site
AFWTR
Launch vehicle
Mass (kg)
RCS (m²)

Purposes: comms

External: N2YO · Heavens-Above · Gunter

§ Orbital elements

Epoch: 2026-09-20T11:34:44.782464Z

Period
93.85 min
Inclination
53.1580°
Eccentricity
0.0000825
Mean motion
15.34408260 rev/d
Perigee alt
462.1 km
Apogee alt
463.2 km
Semi-major
6,840.8 km
B*
4.4114e-4
RAAN
213.4554°
Arg perigee
74.7045°
Mean anomaly
285.4049°
Rev number
5,245

§ Raw data

STARLINK-356371 66130U 25237S   26263.48246276  .00014561  00000+0  44114-3 0  99962 66130  53.1580 213.4554 0000825  74.7045 285.4049 15.34408260 52457

JSON: /api/v1/satellites/66130 · /tle

For live sub-satellite position, see the globe view (requires WebGL).

§ Visibility from observer

Set your observer location to see the next 7 days of passes ≥ 10°. The values pass through the URL so the page stays shareable.

No JS? Fill the form by hand. The geolocation button needs JavaScript.